Location: Düngen
(52.0952°N, 10.0219°E)
Time: 19:03:14
(UTC+00:00)

CSL-04 Rocket - Pass Details

Date: 11 March 2026
Orbit: 805 x 857 km, 98.7° (Epoch: 20 April)

Event Time Altitude Azimuth Distance (km) Brightness Sun altitude
Exits shadow 18:35:57 - 156° (SSE) 3,374 6.5 -12.8°
Rises 18:36:04 0° 156° (SSE) 3,328 6.5 -12.9°
Reaches altitude 10° 18:38:23 10° 154° (SSE) 2,406 5.7 -13.2°
Maximum altitude 18:43:41 73° 71° (ENE) 868 3.6 -14.0°
Drops below altitude 10° 18:49:07 10° 348° (NNW) 2,457 6.5 -14.8°
Sets 18:51:30 0° 346° (NNW) 3,403 7.2 -15.2°
